Aswan, Egypt

8:42 PM EET on May 25, 2017 (GMT +0200)
Aswan

Weather History for HESN - January, 2013

Change the Weather History Date:

Thursday, January 31, 2013

  Actual Average Record
Temperature  
Mean Temperature 60 °F -  
Max Temperature 69 °F 75 °F 84 °F (1998)
Min Temperature 50 °F 52 °F 42 °F (2008)
Degree Days  
Heating Degree Days 6    
Growing Degree Days 10 (Base 50)    
Moisture  
Dew Point 34 °F    
Average Humidity 36    
Maximum Humidity 47    
Minimum Humidity 19    
Precipitation  
Precipitation 0.00 in 0.00 in - ()
Sea Level Pressure  
Sea Level Pressure 30.07 in    
Wind  
Wind Speed 8 mph ()    
Max Wind Speed 18 mph    
Max Gust Speed -    
Visibility 6.0 miles    
Events      
Averages and records for this station are not official NWS values.
T = Trace of Precipitation, MM = Missing Value Source: Averaged Metar Reports

Daily Weather History Graph

Daily Weather History Graph

Search for Another Location

Airport or City:

Trip Planner

Search our weather history database for the weather conditions in past years. The results will help you decide how hot, cold, wet, or windy it might be!

Date:

Astronomy

Jan. 31, 2013 Rise Set
Actual Time 6:30 AM EET 5:34 PM EET
Civil Twilight 6:06 AM EET 5:58 PM EET
Nautical Twilight 5:39 AM EET 6:25 PM EET
Astronomical Twilight 5:12 AM EET 6:52 PM EET
Moon 9:36 PM EET (1/31) 8:53 AM EET (1/31)
Length of Visible Light 11h 51m
Length of Day
11h 04m
Waning Gibbous, 82% of the Moon is Illuminated
Jan 31
Waning Gibbous
Feb 3
Last Quarter
Feb 10
New
Feb 17
First Quarter
Feb 25
Full

Hourly Weather History & Observations

Time (EET) Temp. Dew Point Humidity Pressure Visibility Wind Dir Wind Speed Gust Speed Precip Events Conditions
12:00 AM 59.0 °F 30.2 °F 34% 30.04 in - NW 8.1 mph - N/A   Clear
1:00 AM 57.2 °F 30.2 °F 36% 30.04 in - WNW 6.9 mph - N/A   Clear
2:00 AM 55 °F 30 °F 26% 30.03 in 6 mi WNW 6.9 mph - -   Partly Cloudy
2:00 AM 55.4 °F 26.6 °F 33% 30.01 in - West 5.8 mph - N/A   Clear
3:00 AM 51.8 °F 30.2 °F 44% 30.01 in - WNW 5.8 mph - N/A   Clear
4:00 AM 53.6 °F 30.2 °F 41% 30.01 in - SSW 5.8 mph - N/A   Clear
5:00 AM 51.8 °F 30.2 °F 44% 30.04 in - West 9.2 mph - N/A   Clear
6:00 AM 50.0 °F 28.4 °F 43% 30.04 in - West 5.8 mph - N/A   Clear
7:00 AM 51.8 °F 30.2 °F 44% 30.06 in - West 5.8 mph - N/A   Clear
8:00 AM 55 °F 32 °F 29% 30.10 in 6 mi West 8.1 mph - -   Clear
8:00 AM 55.4 °F 32.0 °F 41% 30.09 in - West 8.1 mph - N/A   Clear
9:00 AM 59.0 °F 33.8 °F 39% 30.09 in - NW 13.8 mph - N/A   Clear
10:00 AM 62.6 °F 33.8 °F 34% 30.12 in - NW 15.0 mph - N/A   Clear
11:00 AM 62.6 °F 37.4 °F 39% 30.09 in - NW 12.7 mph - N/A   Clear
12:00 PM 66.2 °F 37.4 °F 35% 30.09 in - NW 13.8 mph - N/A   Clear
1:00 PM 66.2 °F 37.4 °F 35% 30.06 in - NW 12.7 mph - N/A   Clear
2:00 PM 69 °F 36 °F 19% 30.04 in 6 mi WNW 16.1 mph - -   Clear
3:00 PM 68.0 °F 35.6 °F 30% 30.04 in - WNW 17.3 mph - N/A   Clear
4:00 PM 68.0 °F 35.6 °F 30% 30.04 in - NW 18.4 mph - N/A   Clear
5:00 PM 66.2 °F 35.6 °F 32% 30.04 in - NW 18.4 mph - N/A   Clear
6:00 PM 64.4 °F 37.4 °F 37% 30.06 in - WNW 15.0 mph - N/A   Clear
7:00 PM 62.6 °F 37.4 °F 39% 30.09 in - West 4.6 mph - N/A   Clear
8:00 PM 62 °F 36 °F 27% 30.11 in 6 mi WNW 9.2 mph - -  
8:00 PM 60.8 °F 35.6 °F 39% 30.09 in - WNW 9.2 mph - N/A   Clear
9:00 PM 59.0 °F 35.6 °F 42% 30.12 in - WNW 4.6 mph - N/A   Clear
10:00 PM 59.0 °F 35.6 °F 42% 30.12 in - WNW 6.9 mph - N/A   Clear
11:00 PM 55.4 °F 35.6 °F 47% 30.12 in - WNW 6.9 mph - N/A   Clear